Weather History for VILK - September, 2012

Change the Weather History Date:

Friday, September 7, 2012

  Actual Average Record
Temperature  
Mean Temperature 79 °F -  
Max Temperature 84 °F 87 °F 96 °F (2004)
Min Temperature 74 °F 73 °F 73 °F (2014)
Cooling Degree Days 14    
Growing Degree Days 29 (Base 50)    
Moisture  
Dew Point 78 °F    
Average Humidity 92    
Maximum Humidity 100    
Minimum Humidity 79    
Precipitation  
Precipitation 0.51 in - - ()
Sea Level Pressure  
Sea Level Pressure 29.68 in    
Wind  
Wind Speed 7 mph ()    
Max Wind Speed 12 mph    
Max Gust Speed -    
Visibility 2.5 miles    
Events Rain    
Averages and records for this station are not official NWS values.
T = Trace of Precipitation, MM = Missing Value Source: Averaged Metar Reports

Daily Weather History Graph

Daily Weather History Graph

Search for Another Location

Airport or City:

Trip Planner

Search our weather history database for the weather conditions in past years. The results will help you decide how hot, cold, wet, or windy it might be!

Date:

Astronomy

Sep. 07, 2012 Rise Set
Actual Time 5:48 AM IST 6:19 PM IST
Civil Twilight 5:25 AM IST 6:43 PM IST
Nautical Twilight 4:57 AM IST 7:10 PM IST
Astronomical Twilight 4:29 AM IST 7:38 PM IST
Moon 10:32 PM IST (9/7) 11:37 AM IST (9/7)
Length of Visible Light 13h 17m
Length of Day
12h 31m
Waning Gibbous, 62% of the Moon is Illuminated
Sep 7
Waning Gibbous
Sep 8
Last Quarter
Sep 16
New
Sep 23
First Quarter
Sep 30
Full

Hourly Weather History & Observations

Time (IST) Temp. Heat Index Dew Point Humidity Pressure Visibility Wind Dir Wind Speed Gust Speed Precip Events Conditions
12:00 AM 78.8 °F - 77.0 °F 94% 29.71 in 3.1 mi East 6.9 mph - N/A   Haze
1:00 AM 78.8 °F - 77.0 °F 94% 29.68 in 3.1 mi East 11.5 mph - N/A   Haze
4:00 AM 78.8 °F - 77.0 °F 94% 29.68 in 3.1 mi East 6.9 mph - N/A   Haze
5:00 AM 78.8 °F - 77.0 °F 94% 29.68 in 2.5 mi East 6.9 mph - N/A   Haze
5:30 AM 78 °F - 76 °F 93% 29.68 in 2 mi East 9.2 mph - -   Haze
5:30 AM 78.8 °F - 77.0 °F 94% 29.68 in 2.5 mi East 9.2 mph - N/A   Haze
6:00 AM 78.8 °F - 77.0 °F 94% 29.68 in 2.5 mi East 8.1 mph - N/A   Haze
6:30 AM 78.8 °F - 77.0 °F 94% 29.68 in 2.5 mi East 6.9 mph - N/A   Haze
7:00 AM 78.8 °F - 77.0 °F 94% 29.71 in 2.5 mi East 6.9 mph - N/A   Haze
7:30 AM 78.8 °F - 77.0 °F 94% 29.71 in 2.5 mi ESE 9.2 mph - N/A   Haze
8:00 AM 78.8 °F - 77.0 °F 94% 29.74 in 2.5 mi ESE 11.5 mph - N/A   Haze
8:30 AM 81 °F - 77 °F 84% 29.74 in 2 mi East 11.5 mph - -   Haze
8:30 AM 80.6 °F 87.1 °F 77.0 °F 89% 29.74 in 2.5 mi East 11.5 mph - N/A   Haze
9:30 AM 82.4 °F 90.9 °F 77.0 °F 84% 29.74 in 3.1 mi ESE 9.2 mph - N/A   Haze
10:30 AM 84.2 °F 94.1 °F 77.0 °F 79% 29.71 in 3.1 mi SE 9.2 mph - N/A   Haze
11:00 AM 84.2 °F 96.1 °F 78.8 °F 84% 29.71 in 3.1 mi ESE 9.2 mph - N/A   Haze
11:30 AM 84 °F - 79 °F 81% 29.72 in 2 mi East 9.2 mph - - Rain Light Rain
11:30 AM 84.2 °F 96.1 °F 78.8 °F 84% 29.71 in 3.1 mi East 9.2 mph - N/A Rain Light Rain
12:00 PM 78.8 °F - 78.8 °F 100% 29.71 in 1.2 mi South 11.5 mph - N/A Rain Rain
1:00 PM 77.0 °F - 77.0 °F 100% 29.71 in 1.9 mi SE 6.9 mph - N/A Rain Light Rain
1:30 PM 77.0 °F - 77.0 °F 100% 29.68 in 2.2 mi East 5.8 mph - N/A Rain Light Rain
2:00 PM 77.0 °F - 77.0 °F 100% 29.68 in 2.2 mi East 4.6 mph - N/A Rain Light Rain
2:30 PM 78.8 °F - 77.0 °F 94% 29.65 in 2.2 mi East 5.8 mph - N/A Rain Light Rain
3:00 PM 78.8 °F - 77.0 °F 94% 29.65 in 2.2 mi East 5.8 mph - N/A   Haze
3:30 PM 78.8 °F - 77.0 °F 94% 29.62 in 2.5 mi East 5.8 mph - N/A   Haze
4:00 PM 80.6 °F 88.1 °F 78.8 °F 94% 29.62 in 2.5 mi ESE 4.6 mph - N/A   Haze
4:30 PM 82.4 °F 92.4 °F 78.8 °F 89% 29.62 in 2.5 mi SE 4.6 mph - N/A   Haze
4:50 PM 82.4 °F 92.4 °F 78.8 °F 89% 29.62 in 2.5 mi SE 3.5 mph - N/A   Haze
5:00 PM 82.4 °F 92.4 °F 78.8 °F 89% 29.62 in 2.5 mi SE 3.5 mph - N/A   Haze
5:30 PM 82 °F - 79 °F 87% 29.63 in 2 mi SE 3.5 mph - -   Haze
6:00 PM 82.4 °F 92.4 °F 78.8 °F 89% 29.62 in 2.5 mi East 3.5 mph - N/A   Haze
7:00 PM 80.6 °F 88.1 °F 78.8 °F 94% 29.65 in 2.5 mi Calm Calm - N/A   Haze
7:30 PM 80.6 °F 88.1 °F 78.8 °F 94% 29.65 in 2.5 mi Variable 2.3 mph - N/A   Haze
8:00 PM 80.6 °F 88.1 °F 78.8 °F 94% 29.65 in 2.5 mi East 3.5 mph - N/A   Scattered Clouds
8:30 PM 80 °F - 78 °F 93% 29.68 in 2 mi 2.3 mph - -   Haze
9:00 PM 80.6 °F 88.1 °F 78.8 °F 94% 29.68 in 2.5 mi Variable 2.3 mph - N/A   Haze
10:00 PM 78.8 °F - 77.0 °F 94% 29.68 in 2.5 mi Variable 2.3 mph - N/A   Mostly Cloudy
11:00 PM 78.8 °F - 77.0 °F 94% 29.68 in 2.5 mi Calm Calm - N/A   Mostly Cloudy